Skip Page Navigation
NASA JPL Caltech
NASA Logo - Jet Propulsion Laboratory + View the NASA Portal
+ Near-Earth Object (NEO) Program
Search JPL
JPL Home Earth Solar System Stars & Galaxies Technology
JPL Solar System Dynamics
BODIES ORBITS EPHEMERIDES TOOLS PHYSICAL DATA DISCOVERY FAQ SITE MAP
JPL Small-Body Database Browser
Search: [ help ]  
9120 (1998 DR8)
Classification: Main-belt Asteroid          SPK-ID: 2009120
Ephemeris | Orbit Diagram | Orbital Elements | Physical Parameters | Discovery Circumstances | Close-Approach Data ]

[ show orbit diagram ]
Orbital Elements at Epoch 2457000.5 (2014-Dec-09.0) TDB
Reference: JPL 14 (heliocentric ecliptic J2000)
 Element Value Uncertainty (1-sigma)   Units 
e .200656685309164 6.4813e-08  
a 2.267465773392014 1.0686e-08 AU
q 1.812483607251193 1.4704e-07 AU
i 5.417762335107757 6.2343e-06 deg
node 246.2746278844876 6.1312e-05 deg
peri 114.9401151553024 6.2951e-05 deg
M 29.66490639800546 1.3066e-05 deg
tp 2456897.733866025616
(2014-Aug-28.23386603)
4.5332e-05 JED
period 1247.123713603409
3.41
8.8163e-06
2.414e-08
d
yr
n .2886642247863483 2.0407e-09 deg/d
Q 2.722447939532836 1.2831e-08 AU
  Orbit Determination Parameters
   # obs. used (total)      1210  
   data-arc span      17699 days (48.46 yr)  
   first obs. used      1966-09-13  
   last obs. used      2015-02-27  
   planetary ephem.      DE431  
   SB-pert. ephem.      SB431-BIG16  
   condition code      0  
   fit RMS      .47613  
   data source      ORB  
   producer      Otto Matic  
   solution date      2015-Mar-09 14:16:58  

Additional Information
 Earth MOID = .81814 AU 
 T_jup = 3.582 
[ show covariance matrix ]

Ephemeris | Orbit Diagram | Orbital Elements | Physical Parameters | Discovery Circumstances | Close-Approach Data ]

Physical Parameter Table
Parameter Symbol Value Units Sigma Reference Notes
absolute magnitude H 13.6 mag n/a MPO266007  
rotation period rot_per 14.750 h n/a LCDB (Rev. 2015-Feb); Warner et al., 2009 Published Reference List:
[Pravec, P.; Wolf, M.; Sarounova, L. (2007) http://www.asu.cas.cz/~ppravec/neo.htm]
[Shipley, H.; Dillard, A.; Kendall, J.; Reichert, M.; et al. (2008) Minor Planet Bul. 35, 99-101.]

9120 (1998 DR8)          Discovered 1998-Feb-22 by Beijing Schmidt CCD Asteroid Program at Xinglong
Reference: 19980808/Numbers.arcLast Updated: 2004-04-19

[ show close-approach data ]
Alternate Designations
 1998 DR8 = 1966 PE = 1966 RC = 1973 UW2 = 1990 SQ15 
Ephemeris | Orbit Diagram | Orbital Elements | Physical Parameters | Discovery Circumstances | Close-Approach Data ]
ABOUT SSD CREDITS/AWARDS PRIVACY/COPYRIGHT GLOSSARY LINKS
FirstGov 2015-Mar-29 19:33 UT
(server date/time)  
NASA Home Page
Site Manager:   Ryan S. Park
Webmaster  Alan B. Chamberlin